owner,sensor,date,latitude,longitude,vertical_datum,wind_speed,wind_to_direction,wind_speed_of_gust,qcFlag 
COMPS,ioos:station:USF.COMPS:ARP:1,2011-03-01T00:00:00Z,28.4330,-82.6670,10.0,2.6,270.0,,'1111122,1111122,1111122' 
COMPS,ioos:station:USF.COMPS:ARP:1,2011-03-01T01:00:00Z,28.4330,-82.6670,10.0,2.6,250.0,,'1111122,1111122,1111122' 
COMPS,ioos:station:USF.COMPS:ARP:1,2011-03-01T02:00:00Z,28.4330,-82.6670,10.0,2.6,250.0,,'1111122,1111122,1111122' 
COMPS,ioos:station:USF.COMPS:ARP:1,2011-03-01T03:00:00Z,28.4330,-82.6670,10.0,2.1,240.0,,'1111122,1111122,1111122' 
COMPS,ioos:station:USF.COMPS:ARP:1,2011-03-01T05:00:00Z,28.4330,-82.6670,10.0,1.5,230.0,,'1111122,1111122,1111122' 
COMPS,ioos:station:USF.COMPS:ARP:1,2011-03-01T06:00:00Z,28.4330,-82.6670,10.0,1.5,210.0,,'1111122,1111122,1111122' 
COMPS,ioos:station:USF.COMPS:ARP:1,2011-03-01T07:00:00Z,28.4330,-82.6670,10.0,2.6,260.0,,'1111122,1111122,1111122' 
COMPS,ioos:station:USF.COMPS:ARP:1,2011-03-01T08:00:00Z,28.4330,-82.6670,10.0,3.6,240.0,,'1111122,1111122,1111122' 
COMPS,ioos:station:USF.COMPS:ARP:1,2011-03-01T09:00:00Z,28.4330,-82.6670,10.0,3.6,260.0,,'1111122,1111122,1111122' 
COMPS,ioos:station:USF.COMPS:ARP:1,2011-03-01T10:00:00Z,28.4330,-82.6670,10.0,2.6,250.0,,'1111122,1111122,1111122' 
COMPS,ioos:station:USF.COMPS:ARP:1,2011-03-01T11:00:00Z,28.4330,-82.6670,10.0,3.1,260.0,,'1111122,1111122,1111122' 
COMPS,ioos:station:USF.COMPS:ARP:1,2011-03-01T12:00:00Z,28.4330,-82.6670,10.0,2.6,260.0,,'1111122,1111122,1111122' 
COMPS,ioos:station:USF.COMPS:ARP:1,2011-03-01T13:00:00Z,28.4330,-82.6670,10.0,6.2,290.0,,'1111122,1111122,1111122' 
COMPS,ioos:station:USF.COMPS:ARP:1,2011-03-01T14:00:00Z,28.4330,-82.6670,10.0,3.1,290.0,,'1111122,1111122,1111122' 
COMPS,ioos:station:USF.COMPS:ARP:1,2011-03-01T15:00:00Z,28.4330,-82.6670,10.0,2.1,330.0,,'1111122,1111122,1111122' 
COMPS,ioos:station:USF.COMPS:ARP:1,2011-03-01T16:00:00Z,28.4330,-82.6670,10.0,1.0,350.0,,'1111122,1111122,1111122' 
COMPS,ioos:station:USF.COMPS:ARP:1,2011-03-01T17:00:00Z,28.4330,-82.6670,10.0,1.5,70.0,,'1111122,1111122,1111122' 
COMPS,ioos:station:USF.COMPS:ARP:1,2011-03-01T18:00:00Z,28.4330,-82.6670,10.0,2.1,350.0,,'1111122,1111122,1111122' 
COMPS,ioos:station:USF.COMPS:ARP:1,2011-03-01T19:00:00Z,28.4330,-82.6670,10.0,2.1,330.0,,'1111122,1111122,1111122' 
COMPS,ioos:station:USF.COMPS:ARP:1,2011-03-01T20:00:00Z,28.4330,-82.6670,10.0,2.1,350.0,,'1111122,1111122,1111122' 
COMPS,ioos:station:USF.COMPS:ARP:1,2011-03-01T21:00:00Z,28.4330,-82.6670,10.0,2.6,350.0,,'1111122,1111122,1111122' 
COMPS,ioos:station:USF.COMPS:ARP:1,2011-03-01T22:00:00Z,28.4330,-82.6670,10.0,1.5,350.0,,'1111122,1111122,1111122' 
COMPS,ioos:station:USF.COMPS:ARP:1,2011-03-02T01:00:00Z,28.4330,-82.6670,10.0,7.2,90.0,,'1111122,1111122,1111122' 
COMPS,ioos:station:USF.COMPS:ARP:1,2011-03-02T02:00:00Z,28.4330,-82.6670,10.0,5.7,90.0,,'1111122,1111122,1111122' 
COMPS,ioos:station:USF.COMPS:ARP:1,2011-03-02T03:00:00Z,28.4330,-82.6670,10.0,5.1,100.0,,'1111122,1111122,1111122' 
COMPS,ioos:station:USF.COMPS:ARP:1,2011-03-02T04:00:00Z,28.4330,-82.6670,10.0,4.6,100.0,,'1111122,1111122,1111122' 
COMPS,ioos:station:USF.COMPS:ARP:1,2011-03-02T05:00:00Z,28.4330,-82.6670,10.0,4.1,100.0,,'1111122,1111122,1111122' 
COMPS,ioos:station:USF.COMPS:ARP:1,2011-03-02T06:00:00Z,28.4330,-82.6670,10.0,5.1,90.0,,'1111122,1111122,1111122' 
COMPS,ioos:station:USF.COMPS:ARP:1,2011-03-02T07:00:00Z,28.4330,-82.6670,10.0,5.7,90.0,,'1111122,1111122,1111122' 
COMPS,ioos:station:USF.COMPS:ARP:1,2011-03-02T08:00:00Z,28.4330,-82.6670,10.0,4.6,90.0,,'1111122,1111122,1111122' 
COMPS,ioos:station:USF.COMPS:ARP:1,2011-03-02T09:00:00Z,28.4330,-82.6670,10.0,5.7,90.0,,'1111122,1111122,1111122' 
COMPS,ioos:station:USF.COMPS:ARP:1,2011-03-02T10:00:00Z,28.4330,-82.6670,10.0,4.6,90.0,,'1111122,1111122,1111122' 
COMPS,ioos:station:USF.COMPS:ARP:1,2011-03-02T11:00:00Z,28.4330,-82.6670,10.0,5.1,90.0,,'1111122,1111122,1111122' 
COMPS,ioos:station:USF.COMPS:ARP:1,2011-03-02T12:00:00Z,28.4330,-82.6670,10.0,4.6,90.0,,'1111122,1111122,1111122' 
COMPS,ioos:station:USF.COMPS:ARP:1,2011-03-02T13:00:00Z,28.4330,-82.6670,10.0,4.6,90.0,,'1111122,1111122,1111122' 
COMPS,ioos:station:USF.COMPS:ARP:1,2011-03-02T14:00:00Z,28.4330,-82.6670,10.0,5.1,90.0,,'1111122,1111122,1111122' 
COMPS,ioos:station:USF.COMPS:ARP:1,2011-03-02T15:00:00Z,28.4330,-82.6670,10.0,5.1,80.0,,'1111122,1111122,1111122' 
COMPS,ioos:station:USF.COMPS:ARP:1,2011-03-02T16:00:00Z,28.4330,-82.6670,10.0,4.6,100.0,,'1111122,1111122,1111122' 
COMPS,ioos:station:USF.COMPS:ARP:1,2011-03-02T17:00:00Z,28.4330,-82.6670,10.0,4.6,110.0,,'1111122,1111122,1111122' 
COMPS,ioos:station:USF.COMPS:ARP:1,2011-03-02T18:00:00Z,28.4330,-82.6670,10.0,4.6,110.0,,'1111122,1111122,1111122' 
COMPS,ioos:station:USF.COMPS:ARP:1,2011-03-02T19:00:00Z,28.4330,-82.6670,10.0,4.1,90.0,,'1111122,1111122,1111122' 
COMPS,ioos:station:USF.COMPS:ARP:1,2011-03-02T20:00:00Z,28.4330,-82.6670,10.0,5.7,100.0,,'1111122,1111122,1111122' 
COMPS,ioos:station:USF.COMPS:ARP:1,2011-03-02T21:00:00Z,28.4330,-82.6670,10.0,4.1,110.0,,'1111122,1111122,1111122' 
COMPS,ioos:station:USF.COMPS:ARP:1,2011-03-02T22:00:00Z,28.4330,-82.6670,10.0,4.6,110.0,,'1111122,1111122,1111122' 
COMPS,ioos:station:USF.COMPS:ARP:1,2011-03-02T23:00:00Z,28.4330,-82.6670,10.0,3.1,100.0,,'1111122,1111122,1111122' 
COMPS,ioos:station:USF.COMPS:ARP:1,2011-03-03T02:00:00Z,28.4330,-82.6670,10.0,3.1,100.0,,'1111122,1111122,1111122' 
COMPS,ioos:station:USF.COMPS:ARP:1,2011-03-03T03:00:00Z,28.4330,-82.6670,10.0,2.1,110.0,,'1111122,1111122,1111122' 
COMPS,ioos:station:USF.COMPS:ARP:1,2011-03-03T05:00:00Z,28.4330,-82.6670,10.0,2.6,90.0,,'1111122,1111122,1111122' 
COMPS,ioos:station:USF.COMPS:ARP:1,2011-03-03T06:00:00Z,28.4330,-82.6670,10.0,3.1,100.0,,'1111122,1111122,1111122' 
COMPS,ioos:station:USF.COMPS:ARP:1,2011-03-03T09:00:00Z,28.4330,-82.6670,10.0,3.1,90.0,,'1111122,1111122,1111122' 
COMPS,ioos:station:USF.COMPS:ARP:1,2011-03-03T10:00:00Z,28.4330,-82.6670,10.0,3.1,90.0,,'1111122,1111122,1111122' 
COMPS,ioos:station:USF.COMPS:ARP:1,2011-03-03T12:00:00Z,28.4330,-82.6670,10.0,2.6,90.0,,'1111122,1111122,1111122' 
COMPS,ioos:station:USF.COMPS:ARP:1,2011-03-03T13:00:00Z,28.4330,-82.6670,10.0,2.6,80.0,,'1111122,1111122,1111122' 
COMPS,ioos:station:USF.COMPS:ARP:1,2011-03-03T15:00:00Z,28.4330,-82.6670,10.0,4.1,100.0,,'1111122,1111122,1111122' 
COMPS,ioos:station:USF.COMPS:ARP:1,2011-03-03T16:00:00Z,28.4330,-82.6670,10.0,6.2,100.0,,'1111122,1111122,1111122' 
COMPS,ioos:station:USF.COMPS:ARP:1,2011-03-03T17:00:00Z,28.4330,-82.6670,10.0,5.7,110.0,,'1111122,1111122,1111122' 
COMPS,ioos:station:USF.COMPS:ARP:1,2011-03-03T18:00:00Z,28.4330,-82.6670,10.0,6.2,130.0,,'1111122,1111122,1111122' 
COMPS,ioos:station:USF.COMPS:ARP:1,2011-03-03T20:00:00Z,28.4330,-82.6670,10.0,6.7,100.0,,'1111122,1111122,1111122' 
COMPS,ioos:station:USF.COMPS:ARP:1,2011-03-03T21:00:00Z,28.4330,-82.6670,10.0,4.6,110.0,,'1111122,1111122,1111122' 
COMPS,ioos:station:USF.COMPS:ARP:1,2011-03-03T22:00:00Z,28.4330,-82.6670,10.0,4.1,100.0,,'1111122,1111122,1111122' 
COMPS,ioos:station:USF.COMPS:ARP:1,2011-03-03T23:00:00Z,28.4330,-82.6670,10.0,5.7,120.0,,'1111122,1111122,1111122' 
COMPS,ioos:station:USF.COMPS:ARP:1,2011-03-04T00:00:00Z,28.4330,-82.6670,10.0,2.6,120.0,,'1111122,1111122,1111122' 
COMPS,ioos:station:USF.COMPS:ARP:1,2011-03-04T01:00:00Z,28.4330,-82.6670,10.0,2.1,120.0,,'1111122,1111122,1111122' 
COMPS,ioos:station:USF.COMPS:ARP:1,2011-03-04T02:00:00Z,28.4330,-82.6670,10.0,2.1,100.0,,'1111122,1111122,1111122' 
COMPS,ioos:station:USF.COMPS:ARP:1,2011-03-04T03:00:00Z,28.4330,-82.6670,10.0,2.1,100.0,,'1111122,1111122,1111122' 
COMPS,ioos:station:USF.COMPS:ARP:1,2011-03-04T04:00:00Z,28.4330,-82.6670,10.0,2.1,90.0,,'1111122,1111122,1111122' 
COMPS,ioos:station:USF.COMPS:ARP:1,2011-03-04T05:00:00Z,28.4330,-82.6670,10.0,2.1,90.0,,'1111122,1111122,1111122' 
COMPS,ioos:station:USF.COMPS:ARP:1,2011-03-04T06:00:00Z,28.4330,-82.6670,10.0,3.1,100.0,,'1111122,1111122,1111122' 
COMPS,ioos:station:USF.COMPS:ARP:1,2011-03-04T07:00:00Z,28.4330,-82.6670,10.0,2.6,90.0,,'1111122,1111122,1111122' 
COMPS,ioos:station:USF.COMPS:ARP:1,2011-03-04T08:00:00Z,28.4330,-82.6670,10.0,2.6,90.0,,'1111122,1111122,1111122' 
COMPS,ioos:station:USF.COMPS:ARP:1,2011-03-04T09:00:00Z,28.4330,-82.6670,10.0,2.6,100.0,,'1111122,1111122,1111122' 
COMPS,ioos:station:USF.COMPS:ARP:1,2011-03-04T10:00:00Z,28.4330,-82.6670,10.0,3.1,90.0,,'1111122,1111122,1111122' 
COMPS,ioos:station:USF.COMPS:ARP:1,2011-03-04T11:00:00Z,28.4330,-82.6670,10.0,2.6,100.0,,'1111122,1111122,1111122' 
COMPS,ioos:station:USF.COMPS:ARP:1,2011-03-04T12:00:00Z,28.4330,-82.6670,10.0,2.6,90.0,,'1111122,1111122,1111122' 
COMPS,ioos:station:USF.COMPS:ARP:1,2011-03-04T13:00:00Z,28.4330,-82.6670,10.0,2.6,100.0,,'1111122,1111122,1111122' 
COMPS,ioos:station:USF.COMPS:ARP:1,2011-03-04T14:00:00Z,28.4330,-82.6670,10.0,3.1,100.0,,'1111122,1111122,1111122' 
COMPS,ioos:station:USF.COMPS:ARP:1,2011-03-04T15:00:00Z,28.4330,-82.6670,10.0,4.6,110.0,,'1111122,1111122,1111122' 
COMPS,ioos:station:USF.COMPS:ARP:1,2011-03-04T19:00:00Z,28.4330,-82.6670,10.0,3.6,120.0,,'1111122,1111122,1111122' 
COMPS,ioos:station:USF.COMPS:ARP:1,2011-03-04T21:00:00Z,28.4330,-82.6670,10.0,5.1,100.0,,'1111122,1111122,1111122' 
COMPS,ioos:station:USF.COMPS:ARP:1,2011-03-04T22:00:00Z,28.4330,-82.6670,10.0,5.7,110.0,,'1111122,1111122,1111122' 
COMPS,ioos:station:USF.COMPS:ARP:1,2011-03-04T23:00:00Z,28.4330,-82.6670,10.0,5.7,100.0,,'1111122,1111122,1111122' 
COMPS,ioos:station:USF.COMPS:ARP:1,2011-03-05T00:00:00Z,28.4330,-82.6670,10.0,5.1,100.0,,'1111122,1111122,1111122' 
COMPS,ioos:station:USF.COMPS:ARP:1,2011-03-05T01:00:00Z,28.4330,-82.6670,10.0,4.1,100.0,,'1111122,1111122,1111122' 
COMPS,ioos:station:USF.COMPS:ARP:1,2011-03-05T02:00:00Z,28.4330,-82.6670,10.0,3.6,110.0,,'1111122,1111122,1111122' 
COMPS,ioos:station:USF.COMPS:ARP:1,2011-03-05T03:00:00Z,28.4330,-82.6670,10.0,4.1,100.0,,'1111122,1111122,1111122' 
COMPS,ioos:station:USF.COMPS:ARP:1,2011-03-05T05:00:00Z,28.4330,-82.6670,10.0,2.6,110.0,,'1111122,1111122,1111122' 
COMPS,ioos:station:USF.COMPS:ARP:1,2011-03-05T06:00:00Z,28.4330,-82.6670,10.0,2.6,110.0,,'1111122,1111122,1111122' 
COMPS,ioos:station:USF.COMPS:ARP:1,2011-03-05T08:00:00Z,28.4330,-82.6670,10.0,3.6,110.0,,'1111122,1111122,1111122' 
COMPS,ioos:station:USF.COMPS:ARP:1,2011-03-05T09:00:00Z,28.4330,-82.6670,10.0,2.6,120.0,,'1111122,1111122,1111122' 
COMPS,ioos:station:USF.COMPS:ARP:1,2011-03-05T10:00:00Z,28.4330,-82.6670,10.0,2.6,120.0,,'1111122,1111122,1111122' 
COMPS,ioos:station:USF.COMPS:ARP:1,2011-03-05T11:00:00Z,28.4330,-82.6670,10.0,1.5,110.0,,'1111122,1111122,1111122' 
COMPS,ioos:station:USF.COMPS:ARP:1,2011-03-05T12:00:00Z,28.4330,-82.6670,10.0,1.5,110.0,,'1111122,1111122,1111122' 
COMPS,ioos:station:USF.COMPS:ARP:1,2011-03-05T13:00:00Z,28.4330,-82.6670,10.0,2.6,110.0,,'1111122,1111122,1111122' 
COMPS,ioos:station:USF.COMPS:ARP:1,2011-03-05T14:00:00Z,28.4330,-82.6670,10.0,2.6,110.0,,'1111122,1111122,1111122' 
COMPS,ioos:station:USF.COMPS:ARP:1,2011-03-05T15:00:00Z,28.4330,-82.6670,10.0,2.6,120.0,,'1111122,1111122,1111122' 
COMPS,ioos:station:USF.COMPS:ARP:1,2011-03-05T16:00:00Z,28.4330,-82.6670,10.0,3.6,130.0,,'1111122,1111122,1111122' 
COMPS,ioos:station:USF.COMPS:ARP:1,2011-03-05T17:00:00Z,28.4330,-82.6670,10.0,3.1,140.0,,'1111122,1111122,1111122' 
COMPS,ioos:station:USF.COMPS:ARP:1,2011-03-05T19:00:00Z,28.4330,-82.6670,10.0,2.6,160.0,,'1111122,1111122,1111122' 
COMPS,ioos:station:USF.COMPS:ARP:1,2011-03-05T20:00:00Z,28.4330,-82.6670,10.0,3.1,160.0,,'1111122,1111122,1111122' 
COMPS,ioos:station:USF.COMPS:ARP:1,2011-03-05T22:00:00Z,28.4330,-82.6670,10.0,2.6,290.0,,'1111122,1111122,1111122' 
COMPS,ioos:station:USF.COMPS:ARP:1,2011-03-05T23:00:00Z,28.4330,-82.6670,10.0,2.1,290.0,,'1111122,1111122,1111122' 
COMPS,ioos:station:USF.COMPS:ARP:1,2011-03-06T02:00:00Z,28.4330,-82.6670,10.0,1.0,90.0,,'1111122,1111122,1111122' 
COMPS,ioos:station:USF.COMPS:ARP:1,2011-03-06T06:00:00Z,28.4330,-82.6670,10.0,1.5,150.0,,'1111122,1111122,1111122' 
COMPS,ioos:station:USF.COMPS:ARP:1,2011-03-06T07:00:00Z,28.4330,-82.6670,10.0,1.5,140.0,,'1111122,1111122,1111122' 
COMPS,ioos:station:USF.COMPS:ARP:1,2011-03-06T08:00:00Z,28.4330,-82.6670,10.0,2.1,150.0,,'1111122,1111122,1111122' 
COMPS,ioos:station:USF.COMPS:ARP:1,2011-03-06T09:00:00Z,28.4330,-82.6670,10.0,1.5,180.0,,'1111122,1111122,1111122' 
COMPS,ioos:station:USF.COMPS:ARP:1,2011-03-06T10:00:00Z,28.4330,-82.6670,10.0,0.5,150.0,,'1111122,1111122,1111122' 
COMPS,ioos:station:USF.COMPS:ARP:1,2011-03-06T11:00:00Z,28.4330,-82.6670,10.0,1.0,240.0,,'1111122,1111122,1111122' 
COMPS,ioos:station:USF.COMPS:ARP:1,2011-03-06T14:00:00Z,28.4330,-82.6670,10.0,1.5,210.0,,'1111122,1111122,1111122' 
COMPS,ioos:station:USF.COMPS:ARP:1,2011-03-06T17:00:00Z,28.4330,-82.6670,10.0,6.2,270.0,,'1111122,1111122,1111122' 
COMPS,ioos:station:USF.COMPS:ARP:1,2011-03-06T18:00:00Z,28.4330,-82.6670,10.0,6.7,280.0,,'1111122,1111122,1111122' 
COMPS,ioos:station:USF.COMPS:ARP:1,2011-03-06T19:00:00Z,28.4330,-82.6670,10.0,6.7,280.0,,'1111122,1111122,1111122' 
COMPS,ioos:station:USF.COMPS:ARP:1,2011-03-06T20:00:00Z,28.4330,-82.6670,10.0,7.2,280.0,,'1111122,1111122,1111122' 
COMPS,ioos:station:USF.COMPS:ARP:1,2011-03-06T21:00:00Z,28.4330,-82.6670,10.0,7.7,320.0,,'1111122,1111122,1111122' 
COMPS,ioos:station:USF.COMPS:ARP:1,2011-03-06T22:00:00Z,28.4330,-82.6670,10.0,4.6,320.0,,'1111122,1111122,1111122' 
COMPS,ioos:station:USF.COMPS:ARP:1,2011-03-06T23:00:00Z,28.4330,-82.6670,10.0,5.1,320.0,,'1111122,1111122,1111122' 
COMPS,ioos:station:USF.COMPS:ARP:1,2011-03-07T00:00:00Z,28.4330,-82.6670,10.0,2.6,330.0,,'1111122,1111122,1111122' 
COMPS,ioos:station:USF.COMPS:ARP:1,2011-03-07T01:00:00Z,28.4330,-82.6670,10.0,4.1,320.0,,'1111122,1111122,1111122' 
COMPS,ioos:station:USF.COMPS:ARP:1,2011-03-07T03:00:00Z,28.4330,-82.6670,10.0,2.6,320.0,,'1111122,1111122,1111122' 
COMPS,ioos:station:USF.COMPS:ARP:1,2011-03-07T04:00:00Z,28.4330,-82.6670,10.0,3.6,320.0,,'1111122,1111122,1111122' 
COMPS,ioos:station:USF.COMPS:ARP:1,2011-03-07T08:00:00Z,28.4330,-82.6670,10.0,4.1,320.0,,'1111122,1111122,1111122' 
COMPS,ioos:station:USF.COMPS:ARP:1,2011-03-07T09:00:00Z,28.4330,-82.6670,10.0,1.5,70.0,,'1111122,1111122,1111122' 
COMPS,ioos:station:USF.COMPS:ARP:1,2011-03-07T10:00:00Z,28.4330,-82.6670,10.0,3.1,80.0,,'1111122,1111122,1111122' 
COMPS,ioos:station:USF.COMPS:ARP:1,2011-03-07T11:00:00Z,28.4330,-82.6670,10.0,2.1,80.0,,'1111122,1111122,1111122' 
COMPS,ioos:station:USF.COMPS:ARP:1,2011-03-07T12:00:00Z,28.4330,-82.6670,10.0,1.5,100.0,,'1111122,1111122,1111122' 
COMPS,ioos:station:USF.COMPS:ARP:1,2011-03-07T17:00:00Z,28.4330,-82.6670,10.0,2.1,100.0,,'1111122,1111122,1111122' 
COMPS,ioos:station:USF.COMPS:ARP:1,2011-03-07T18:00:00Z,28.4330,-82.6670,10.0,2.1,70.0,,'1111122,1111122,1111122' 
COMPS,ioos:station:USF.COMPS:ARP:1,2011-03-07T22:00:00Z,28.4330,-82.6670,10.0,2.1,350.0,,'1111122,1111122,1111122' 
COMPS,ioos:station:USF.COMPS:ARP:1,2011-03-07T23:00:00Z,28.4330,-82.6670,10.0,1.0,360.0,,'1111122,1111122,1111122' 
COMPS,ioos:station:USF.COMPS:ARP:1,2011-03-08T00:00:00Z,28.4330,-82.6670,10.0,1.0,80.0,,'1111122,1111122,1111122' 
COMPS,ioos:station:USF.COMPS:ARP:1,2011-03-08T01:00:00Z,28.4330,-82.6670,10.0,1.5,90.0,,'1111122,1111122,1111122' 
COMPS,ioos:station:USF.COMPS:ARP:1,2011-03-08T02:00:00Z,28.4330,-82.6670,10.0,0.5,100.0,,'1111122,1111122,1111122' 
COMPS,ioos:station:USF.COMPS:ARP:1,2011-03-08T03:00:00Z,28.4330,-82.6670,10.0,3.1,100.0,,'1111122,1111122,1111122' 
COMPS,ioos:station:USF.COMPS:ARP:1,2011-03-08T04:00:00Z,28.4330,-82.6670,10.0,4.1,100.0,,'1111122,1111122,1111122' 
COMPS,ioos:station:USF.COMPS:ARP:1,2011-03-08T05:00:00Z,28.4330,-82.6670,10.0,4.1,110.0,,'1111122,1111122,1111122' 
COMPS,ioos:station:USF.COMPS:ARP:1,2011-03-08T06:00:00Z,28.4330,-82.6670,10.0,3.6,110.0,,'1111122,1111122,1111122' 
COMPS,ioos:station:USF.COMPS:ARP:1,2011-03-08T07:00:00Z,28.4330,-82.6670,10.0,4.1,110.0,,'1111122,1111122,1111122' 
COMPS,ioos:station:USF.COMPS:ARP:1,2011-03-08T08:00:00Z,28.4330,-82.6670,10.0,3.6,110.0,,'1111122,1111122,1111122' 
COMPS,ioos:station:USF.COMPS:ARP:1,2011-03-08T10:00:00Z,28.4330,-82.6670,10.0,4.6,110.0,,'1111122,1111122,1111122' 
COMPS,ioos:station:USF.COMPS:ARP:1,2011-03-08T11:00:00Z,28.4330,-82.6670,10.0,4.1,110.0,,'1111122,1111122,1111122' 
COMPS,ioos:station:USF.COMPS:ARP:1,2011-03-08T13:00:00Z,28.4330,-82.6670,10.0,4.1,100.0,,'1111122,1111122,1111122' 
COMPS,ioos:station:USF.COMPS:ARP:1,2011-03-08T14:00:00Z,28.4330,-82.6670,10.0,5.1,100.0,,'1111122,1111122,1111122' 
COMPS,ioos:station:USF.COMPS:ARP:1,2011-03-08T15:00:00Z,28.4330,-82.6670,10.0,5.7,110.0,,'1111122,1111122,1111122' 
COMPS,ioos:station:USF.COMPS:ARP:1,2011-03-08T17:00:00Z,28.4330,-82.6670,10.0,2.6,130.0,,'1111122,1111122,1111122' 
COMPS,ioos:station:USF.COMPS:ARP:1,2011-03-08T19:00:00Z,28.4330,-82.6670,10.0,4.1,100.0,,'1111122,1111122,1111122' 
COMPS,ioos:station:USF.COMPS:ARP:1,2011-03-08T20:00:00Z,28.4330,-82.6670,10.0,3.1,110.0,,'1111122,1111122,1111122' 
COMPS,ioos:station:USF.COMPS:ARP:1,2011-03-08T21:00:00Z,28.4330,-82.6670,10.0,2.1,130.0,,'1111122,1111122,1111122' 
COMPS,ioos:station:USF.COMPS:ARP:1,2011-03-08T22:00:00Z,28.4330,-82.6670,10.0,4.1,100.0,,'1111122,1111122,1111122' 
COMPS,ioos:station:USF.COMPS:ARP:1,2011-03-08T23:00:00Z,28.4330,-82.6670,10.0,2.6,110.0,,'1111122,1111122,1111122' 
COMPS,ioos:station:USF.COMPS:ARP:1,2011-03-09T00:00:00Z,28.4330,-82.6670,10.0,2.6,110.0,,'1111122,1111122,1111122' 
COMPS,ioos:station:USF.COMPS:ARP:1,2011-03-09T04:00:00Z,28.4330,-82.6670,10.0,2.6,110.0,,'1111122,1111122,1111122' 
COMPS,ioos:station:USF.COMPS:ARP:1,2011-03-09T05:00:00Z,28.4330,-82.6670,10.0,3.1,110.0,,'1111122,1111122,1111122' 
COMPS,ioos:station:USF.COMPS:ARP:1,2011-03-09T06:00:00Z,28.4330,-82.6670,10.0,3.1,110.0,,'1111122,1111122,1111122' 
COMPS,ioos:station:USF.COMPS:ARP:1,2011-03-09T07:00:00Z,28.4330,-82.6670,10.0,3.1,120.0,,'1111122,1111122,1111122' 
COMPS,ioos:station:USF.COMPS:ARP:1,2011-03-09T08:00:00Z,28.4330,-82.6670,10.0,2.6,110.0,,'1111122,1111122,1111122' 
COMPS,ioos:station:USF.COMPS:ARP:1,2011-03-09T09:00:00Z,28.4330,-82.6670,10.0,3.1,120.0,,'1111122,1111122,1111122' 
COMPS,ioos:station:USF.COMPS:ARP:1,2011-03-09T11:00:00Z,28.4330,-82.6670,10.0,3.1,120.0,,'1111122,1111122,1111122' 
COMPS,ioos:station:USF.COMPS:ARP:1,2011-03-09T12:00:00Z,28.4330,-82.6670,10.0,3.6,120.0,,'1111122,1111122,1111122' 
COMPS,ioos:station:USF.COMPS:ARP:1,2011-03-09T13:00:00Z,28.4330,-82.6670,10.0,2.6,130.0,,'1111122,1111122,1111122' 
COMPS,ioos:station:USF.COMPS:ARP:1,2011-03-09T14:00:00Z,28.4330,-82.6670,10.0,4.6,140.0,,'1111122,1111122,1111122' 
COMPS,ioos:station:USF.COMPS:ARP:1,2011-03-09T15:00:00Z,28.4330,-82.6670,10.0,3.1,150.0,,'1111122,1111122,1111122' 
COMPS,ioos:station:USF.COMPS:ARP:1,2011-03-09T16:00:00Z,28.4330,-82.6670,10.0,3.1,170.0,,'1111122,1111122,1111122' 
COMPS,ioos:station:USF.COMPS:ARP:1,2011-03-09T18:00:00Z,28.4330,-82.6670,10.0,3.1,210.0,,'1111122,1111122,1111122' 
COMPS,ioos:station:USF.COMPS:ARP:1,2011-03-09T19:00:00Z,28.4330,-82.6670,10.0,2.6,230.0,,'1111122,1111122,1111122' 
COMPS,ioos:station:USF.COMPS:ARP:1,2011-03-09T22:00:00Z,28.4330,-82.6670,10.0,5.1,270.0,,'1111122,1111122,1111122' 
COMPS,ioos:station:USF.COMPS:ARP:1,2011-03-09T23:00:00Z,28.4330,-82.6670,10.0,3.1,270.0,,'1111122,1111122,1111122' 
COMPS,ioos:station:USF.COMPS:ARP:1,2011-03-10T00:00:00Z,28.4330,-82.6670,10.0,2.1,260.0,,'1111122,1111122,1111122' 
COMPS,ioos:station:USF.COMPS:ARP:1,2011-03-10T01:00:00Z,28.4330,-82.6670,10.0,2.1,250.0,,'1111122,1111122,1111122' 
COMPS,ioos:station:USF.COMPS:ARP:1,2011-03-10T03:00:00Z,28.4330,-82.6670,10.0,2.6,10.0,,'1111122,1111122,1111122' 
COMPS,ioos:station:USF.COMPS:ARP:1,2011-03-10T04:00:00Z,28.4330,-82.6670,10.0,3.6,90.0,,'1111122,1111122,1111122' 
COMPS,ioos:station:USF.COMPS:ARP:1,2011-03-10T05:00:00Z,28.4330,-82.6670,10.0,3.1,110.0,,'1111122,1111122,1111122' 
COMPS,ioos:station:USF.COMPS:ARP:1,2011-03-10T06:00:00Z,28.4330,-82.6670,10.0,3.6,120.0,,'1111122,1111122,1111122' 
COMPS,ioos:station:USF.COMPS:ARP:1,2011-03-10T07:00:00Z,28.4330,-82.6670,10.0,4.1,110.0,,'1111122,1111122,1111122' 
COMPS,ioos:station:USF.COMPS:ARP:1,2011-03-10T08:00:00Z,28.4330,-82.6670,10.0,3.6,120.0,,'1111122,1111122,1111122' 
COMPS,ioos:station:USF.COMPS:ARP:1,2011-03-10T10:00:00Z,28.4330,-82.6670,10.0,2.1,120.0,,'1111122,1111122,1111122' 
COMPS,ioos:station:USF.COMPS:ARP:1,2011-03-10T11:00:00Z,28.4330,-82.6670,10.0,1.5,160.0,,'1111122,1111122,1111122' 
COMPS,ioos:station:USF.COMPS:ARP:1,2011-03-10T12:00:00Z,28.4330,-82.6670,10.0,3.1,140.0,,'1111122,1111122,1111122' 
COMPS,ioos:station:USF.COMPS:ARP:1,2011-03-10T13:00:00Z,28.4330,-82.6670,10.0,4.6,150.0,,'1111122,1111122,1111122' 
COMPS,ioos:station:USF.COMPS:ARP:1,2011-03-10T14:00:00Z,28.4330,-82.6670,10.0,3.6,160.0,,'1111122,1111122,1111122' 
COMPS,ioos:station:USF.COMPS:ARP:1,2011-03-10T15:00:00Z,28.4330,-82.6670,10.0,2.1,190.0,,'1111122,1111122,1111122' 
COMPS,ioos:station:USF.COMPS:ARP:1,2011-03-10T16:00:00Z,28.4330,-82.6670,10.0,1.5,190.0,,'1111122,1111122,1111122' 
COMPS,ioos:station:USF.COMPS:ARP:1,2011-03-10T17:00:00Z,28.4330,-82.6670,10.0,2.6,250.0,,'1111122,1111122,1111122' 
COMPS,ioos:station:USF.COMPS:ARP:1,2011-03-10T18:00:00Z,28.4330,-82.6670,10.0,6.2,330.0,,'1111122,1111122,1111122' 
COMPS,ioos:station:USF.COMPS:ARP:1,2011-03-10T20:00:00Z,28.4330,-82.6670,10.0,5.7,320.0,,'1111122,1111122,1111122' 
COMPS,ioos:station:USF.COMPS:ARP:1,2011-03-10T23:00:00Z,28.4330,-82.6670,10.0,6.2,320.0,,'1111122,1111122,1111122' 
COMPS,ioos:station:USF.COMPS:ARP:1,2011-03-11T01:00:00Z,28.4330,-82.6670,10.0,4.6,320.0,,'1111122,1111122,1111122' 
COMPS,ioos:station:USF.COMPS:ARP:1,2011-03-11T02:00:00Z,28.4330,-82.6670,10.0,3.6,340.0,,'1111122,1111122,1111122' 
COMPS,ioos:station:USF.COMPS:ARP:1,2011-03-11T03:00:00Z,28.4330,-82.6670,10.0,3.1,340.0,,'1111122,1111122,1111122' 
COMPS,ioos:station:USF.COMPS:ARP:1,2011-03-11T04:00:00Z,28.4330,-82.6670,10.0,2.6,350.0,,'1111122,1111122,1111122' 
COMPS,ioos:station:USF.COMPS:ARP:1,2011-03-11T05:00:00Z,28.4330,-82.6670,10.0,2.6,360.0,,'1111122,1111122,1111122' 
COMPS,ioos:station:USF.COMPS:ARP:1,2011-03-11T06:00:00Z,28.4330,-82.6670,10.0,1.5,40.0,,'1111122,1111122,1111122' 
COMPS,ioos:station:USF.COMPS:ARP:1,2011-03-11T07:00:00Z,28.4330,-82.6670,10.0,1.5,70.0,,'1111122,1111122,1111122' 
COMPS,ioos:station:USF.COMPS:ARP:1,2011-03-11T08:00:00Z,28.4330,-82.6670,10.0,3.1,10.0,,'1111122,1111122,1111122' 
COMPS,ioos:station:USF.COMPS:ARP:1,2011-03-11T09:00:00Z,28.4330,-82.6670,10.0,2.1,10.0,,'1111122,1111122,1111122' 
COMPS,ioos:station:USF.COMPS:ARP:1,2011-03-11T10:00:00Z,28.4330,-82.6670,10.0,3.1,340.0,,'1111122,1111122,1111122' 
COMPS,ioos:station:USF.COMPS:ARP:1,2011-03-11T11:00:00Z,28.4330,-82.6670,10.0,3.1,340.0,,'1111122,1111122,1111122' 
COMPS,ioos:station:USF.COMPS:ARP:1,2011-03-11T13:00:00Z,28.4330,-82.6670,10.0,4.6,330.0,,'1111122,1111122,1111122' 
COMPS,ioos:station:USF.COMPS:ARP:1,2011-03-11T14:00:00Z,28.4330,-82.6670,10.0,4.1,320.0,,'1111122,1111122,1111122' 
COMPS,ioos:station:USF.COMPS:ARP:1,2011-03-11T15:00:00Z,28.4330,-82.6670,10.0,4.6,330.0,,'1111122,1111122,1111122' 
COMPS,ioos:station:USF.COMPS:ARP:1,2011-03-11T16:00:00Z,28.4330,-82.6670,10.0,2.6,330.0,,'1111122,1111122,1111122' 
COMPS,ioos:station:USF.COMPS:ARP:1,2011-03-11T18:00:00Z,28.4330,-82.6670,10.0,5.1,320.0,,'1111122,1111122,1111122' 
COMPS,ioos:station:USF.COMPS:ARP:1,2011-03-11T19:00:00Z,28.4330,-82.6670,10.0,6.2,310.0,,'1111122,1111122,1111122' 
COMPS,ioos:station:USF.COMPS:ARP:1,2011-03-11T20:00:00Z,28.4330,-82.6670,10.0,6.7,310.0,,'1111122,1111122,1111122' 
COMPS,ioos:station:USF.COMPS:ARP:1,2011-03-11T21:00:00Z,28.4330,-82.6670,10.0,6.7,320.0,,'1111122,1111122,1111122' 
COMPS,ioos:station:USF.COMPS:ARP:1,2011-03-11T22:00:00Z,28.4330,-82.6670,10.0,6.7,320.0,,'1111122,1111122,1111122' 
COMPS,ioos:station:USF.COMPS:ARP:1,2011-03-12T00:00:00Z,28.4330,-82.6670,10.0,2.1,330.0,,'1111122,1111122,1111122' 